Regional Weather Roundup
Issued by NWS

Home | Current Version | Previous Version | Text Only | Print | Product List | Glossary On
Versions: 1 2 3 4 5 6 7 8 9 10 11 12 13 14 15 16 17 18 19 20 21 22 23 24 25 26 27 28 29 30 31 32 33 34 35 36 37 38 39 40 41 42 43 44 45 46 47 48 49 50
000
ASUS45 KBOU 110707
RWRCO

WEATHER ROUNDUP FOR COLORADO
NATIONAL WEATHER SERVICE DENVER/BOULDER CO
1200 AM MST SUN DEC 11 2016

NOTE: "FAIR" INDICATES FEW OR NO CLOUDS BELOW 12000 FEET WITH NO
SIGNIFICANT WEATHER AND/OR OBSTRUCTIONS TO VISIBILITY.

COZ001>005-013-030-031-110800-
...NORTHWEST COLORADO...

CITY           SKY/WX    TMP DP  RH WIND       PRES   REMARKS
CRAIG          LGT SNOW  33  31  92 SW7       29.86S FOG     WCI  27
HAYDEN         CLOUDY    30  28  93 W9        29.84R VSB 1/2 WCI  22
MEEKER         LGT RAIN  37  29  72 NW6       29.83S
MOUNT WERNER   NOT AVBL
STEAMBOAT SPGS CLOUDY    32  32  99 SW3       29.82F VSB 1
WALDEN           N/A     30  28  93 NW9       29.81F VSB 1   WCI  22
$$

COZ006>008-011-110800-
...WEST CENTRAL VALLEYS...

CITY           SKY/WX    TMP DP  RH WIND       PRES   REMARKS
GRAND JUNCTION CLOUDY    31  26  82 CALM      29.89F
MONTROSE       CLOUDY    34  27  75 CALM      29.92F
EAGLE          LGT RAIN  35  34  96 W10       29.85F WCI  27
RIFLE          CLOUDY    31  26  82 CALM      29.87F
DELTA          NOT AVBL
NUCLA          CLOUDY    43  28  56 CALM      29.97F
$$

COZ017>023-064>068-110800-
...SOUTHWEST COLORADO...

CITY           SKY/WX    TMP DP  RH WIND       PRES   REMARKS
DURANGO        FAIR      28  22  78 CALM      30.03S
CORTEZ         FAIR      29  26  89 CALM      30.02F
PAGOSA SPRINGS FAIR      27  24  88 CALM      30.04F
TELLURIDE      CLOUDY    40  26  58 W6        30.03F
WOLF CREEK PAS CLOUDY    21  21 100 S13G21    30.12F WCI   9
$$

COZ009-010-012-014-032>034-037-058>063-110800-
...CENTRAL COLORADO...

CITY           SKY/WX    TMP DP  RH WIND       PRES   REMARKS
ASPEN          CLOUDY    37  31  78 N6        29.85S
BUENA VISTA    FAIR      40  24  52 W22       29.84F
COPPER MTN     NOT AVBL
BERTHOUD PASS  SNOW      21  10  63 W25       29.86R VSB 1/2 WCI   4
COTTONWOOD PAS CLOUDY    36  27  69 NW7       29.90F
GUNNISON       LGT SNOW  27  24  89 S6        29.95F FOG     WCI  20
KREMMLING      DRIZZLE   41  34  75 SW16      29.80F
LEADVILLE      LGT SNOW  29  25  85 SE6       29.86F FOG     WCI  23
MONARCH PASS     N/A     21  19  93 SW26      30.07F WCI   4
SALIDA         FAIR      42  22  44 W8        29.94F
SUNLIGHT       CLOUDY    27  25  93 SW29G46   29.90F WCI  11
WILKERSON PASS CLOUDY    28  21  74 SW10G20   29.93F WCI  19
$$

COZ069>075-110800-
...SAN LUIS VALLEY/SANGRE DE CRISTO MOUNTAINS...

CITY           SKY/WX    TMP DP  RH WIND       PRES   REMARKS
ALAMOSA        FAIR      32  21  64 E8        29.93F WCI  25
LA VETA PASS   FAIR      32  21  64 NE29G43   29.92S WCI  18
SAGUACHE       FAIR      25  18  74 NW5       29.96F WCI  19
$$

COZ035-036-038>040-110800-
...NORTHERN COLORADO FRONT RANGE...

CITY           SKY/WX    TMP DP  RH WIND       PRES   REMARKS
DENVER INTL AP MOCLDY    35  26  69 E6        29.70R WCI  30
DMNS CITY PARK   N/A     40  27  61 NE3G10    29.67S
AURORA         MOCLDY    37  28  71 S8        29.71R
FRONT RANGE AP FAIR      37  30  75 SE7       29.70S
ERIE MUNI ARPT FAIR      40  29  64 NE3       29.70R
BOULDER MUN AP MOCLDY    43  28  56 E5        29.69R
CENTENNIAL     MOCLDY    39  27  62 S9        29.69S
BROOMFIELD     FAIR      43  28  56 W7        29.71R
FORT COLLINS   FAIR      30  25  80 N13       29.70F WCI  20
LONGMONT       NOT AVBL
$$

COZ041-046-047-076>085-087-088-110800-
...PIKES PEAK/PALMER DIVIDE AND SOUTHERN FOOTHILLS...

CITY           SKY/WX    TMP DP  RH WIND       PRES   REMARKS
COLO. SPRINGS  MOCLDY    45  24  43 VRB5      29.70F
A. F. ACADEMY  FAIR      51  23  34 W24G39    29.68R
SCHRIEVER AFB  NOT AVBL
ELLICOTT       FAIR     N/A N/A N/A E12       29.70F
FALCON         FAIR      49  22  34 NW24G32   29.72F
FORT CARSON    FAIR      42  22  46 E9        29.66F
LIMON          FAIR      25  21  85 W3        29.70F
MONUMENT HILL  FAIR      39  23  52 W13       29.75S
TRINIDAD       FAIR      34  11  38 NE3       29.74F
$$

COZ042>045-048>051-090-091-110800-
...NORTHEAST COLORADO...

CITY           SKY/WX    TMP DP  RH WIND       PRES   REMARKS
GREELEY ARPT   FAIR      24  20  84 SW3       29.72S
AKRON          CLOUDY    44  28  53 NW12      29.68S
BURLINGTON     FAIR      30  21  69 W10       29.67F WCI  21
WRAY           FAIR      28  27  93 W7        29.66S WCI  21
STERLING       CLOUDY    32  28  86 SE3       29.68R
HOLYOKE        FAIR      37  32  81 NW12      29.66S
FORT MORGAN    CLOUDY    32  25  76 W7        29.70S WCI  25
$$

COZ086-089-092>099-110800-
...SOUTHEAST COLORADO...

CITY           SKY/WX    TMP DP  RH WIND       PRES   REMARKS
PUEBLO         FAIR      54  26  34 W10       29.66F
LA JUNTA       FAIR      30  18  60 NE8       29.68F WCI  22
LAMAR          FAIR      24  18  77 CALM      29.67S
SPRINGFIELD      N/A     44  14  29 W9        29.68F
$$



USA.gov is the U.S. government's official web portal to all federal, state and local government web resources and services.